This demonstration page uses our WeatherBlox Daily Observations layout. Learn more.

Left ArrowRight Arrow

44.8408, -93.29828

Hourly Observations for September 18, 2016

Temp ( °F °C ) Dew Point ( °F °C ) Humidity (%) Winds ( mph kmh ) Pressure ( in mb ) Visibility ( mi km ) Precip ( " mm )
12:53 am 00:53 Clear 59 15 53 11.7 81 81 SSW 5 7 29.90 1013 10 16 0.00 0.00
1:53 am 01:53 Clear 59 15 53 11.7 81 81 SSW 5 7 29.89 1012 10 16 0.00 0.00
2:53 am 02:53 Clear 58 14.4 52 11.1 81 81 S 3 6 29.89 1012 10 16 0.00 0.00
3:53 am 03:53 Clear 55 12.8 52 11.1 90 90 SE 5 7 29.88 1012 10 16 0.00 0.00
4:53 am 04:53 Clear 55 12.8 52 11.1 90 90 SE 6 9 29.87 1011 10 16 0.00 0.00
5:53 am 05:53 Mostly Clear 55 12.8 52 11.1 90 90 ESE 5 7 29.85 1011 10 16 0.00 0.00
6:53 am 06:53 Mostly Clear 56 13.3 52 11.1 87 87 SE 6 9 29.85 1011 10 16 0.00 0.00
7:53 am 07:53 Mostly Sunny 57 13.9 53 11.7 87 87 SE 6 9 29.85 1011 10 16 0.00 0.00
8:53 am 08:53 Mostly Sunny 62 16.7 54 12.2 75 75 S 6 9 29.84 1010 10 16 0.00 0.00
9:53 am 09:53 Mostly Sunny 67 19.4 57 13.9 71 71 SSE 6 9 29.84 1010 10 16 0.00 0.00
10:53 am 10:53 Partly Cloudy 72 22.2 58 14.4 61 61 SSE 8 13 29.83 1010 10 16 0.00 0.00
11:53 am 11:53 Partly Cloudy 75 23.9 57 13.9 54 54 S 12 19 29.81 1009 10 16 0.00 0.00
12:53 pm 12:53 Mostly Cloudy 78 25.6 58 14.4 50 50 S 14 22 29.79 1009 10 16 0.00 0.00
1:53 pm 13:53 Mostly Cloudy 81 27.2 56 13.3 42 42 SSW 12 19 29.78 1008 10 16 0.00 0.00
2:53 pm 14:53 Mostly Cloudy 83 28.3 56 13.3 40 40 S 15 24 29.74 1007 10 16 0.00 0.00
3:53 pm 15:53 Mostly Cloudy 83 28.3 55 12.8 38 38 SSW 15 24 29.74 1007 10 16 0.00 0.00
4:53 pm 16:53 Cloudy 82 27.8 56 13.3 41 41 S 9 15 29.73 1007 10 16 0.00 0.00
5:53 pm 17:53 Cloudy 81 27.2 55 12.8 41 41 SSW 8 13 29.74 1007 10 16 0.00 0.00
6:53 pm 18:53 Cloudy 79 26.1 55 12.8 44 44 S 8 13 29.74 1007 10 16 0.00 0.00
7:53 pm 19:53 Cloudy 77 25 57 13.9 50 50 S 6 9 29.74 1007 10 16 0.00 0.00
8:53 pm 20:53 Cloudy 77 25 58 14.4 52 52 SSW 9 15 29.76 1008 10 16 0.00 0.00
9:53 pm 21:53 Mostly Cloudy 77 25 59 15 54 54 SSW 8 13 29.76 1008 10 16 0.00 0.00
10:53 pm 22:53 Mostly Cloudy 76 24.4 58 14.4 54 54 SW 14 22 29.76 1008 10 16 0.00 0.00
11:53 pm 23:53 Mostly Clear 74 23.3 58 14.4 57 57 SW 12 19 29.77 1008 10 16 0.00 0.00

Powered by AerisWeather